Date String (YYYY-MM-DD hh:mm:ss) UTC,Instrument flags,absolute air pressure of the measurement (hPa),sample flow rate (lpm),inlet stack bypass flow (lpm),air temperature of the measurement (°C),ambient temperature measured by the external sensor (°C),aerosol sample conditioner tube jacket temperature (°C),OPC LED temperature (°C),internal box temperature (°C),relative humidity of the measurement (%),span deviation,mass concentration of particles derived from Lorenz-Mie calculation of OPC scattering (μg/m³),mass concentration of particles derived from Lorenz-Mie calculation of OPC scattering (μg/m³),mass concentration of particles derived from Lorenz-Mie calculation of OPC scattering (μg/m³)
DateTimeUTC,F1_M11,P_M11,Q1_M11,Q2_M11,T1_M11,T2_M11,T3_M11,T4_M11,T5_M11,U1_M11,ZSPAN_M11,X0_M11,X2_M11,X1_M11
2024-02-09 01:00:00,SystemResetWarning,0819.5,5.00,000.00,020.9,020.1,000.0,029.1,022.5,10.7,0000.0,0001.09,0000.37,0000.27
2024-02-09 01:01:00,SystemResetWarning,0819.4,5.01,000.00,020.9,020.1,000.0,029.1,022.5,10.9,0000.0,0000.53,0000.36,0000.28
2024-02-09 01:02:00,SystemResetWarning,0819.4,5.00,000.00,020.8,020.1,000.0,029.1,022.4,10.8,0000.0,0000.49,0000.34,0000.27
2024-02-09 01:03:00,SystemResetWarning,0819.4,5.00,000.00,020.8,020.1,000.0,029.1,022.4,10.7,0000.0,0000.45,0000.33,0000.27
2024-02-09 01:04:00,SystemResetWarning,0819.4,5.00,000.00,020.8,020.1,000.0,029.1,022.4,10.6,0000.0,0000.47,0000.34,0000.27
2024-02-09 01:05:00,SystemResetWarning,0819.5,5.01,000.00,020.8,020.0,000.0,029.1,022.4,10.7,0000.0,0000.48,0000.33,0000.27
2024-02-09 01:06:00,SystemResetWarning,0819.5,5.00,000.00,020.8,020.0,000.0,029.1,022.3,11.2,0000.0,0000.46,0000.32,0000.26
2024-02-09 01:07:00,SystemResetWarning,0819.4,5.00,000.00,020.8,020.0,000.0,029.1,022.3,11.2,0000.0,0000.44,0000.31,0000.26
2024-02-09 01:08:00,SystemResetWarning,0819.3,5.00,000.00,020.8,020.0,000.0,029.1,022.3,11.3,0000.0,0000.40,0000.28,0000.25
2024-02-09 01:09:00,SystemResetWarning,0819.3,5.00,000.00,020.8,020.0,000.0,029.0,022.3,11.2,0000.0,0000.39,0000.28,0000.25
2024-02-09 01:10:00,SystemResetWarning,0819.5,5.00,000.00,020.7,020.0,000.0,029.0,022.3,10.8,0000.0,0000.36,0000.26,0000.24
2024-02-09 01:11:00,SystemResetWarning,0819.8,5.01,000.00,020.7,019.9,000.0,029.0,022.4,10.7,0000.0,0000.32,0000.25,0000.23
2024-02-09 01:12:00,SystemResetWarning,0819.7,5.00,000.00,020.7,019.9,000.0,029.0,022.4,10.7,0000.0,0000.30,0000.23,0000.22
2024-02-09 01:13:00,SystemResetWarning,0819.7,5.00,000.00,020.7,019.9,000.0,029.0,022.3,11.3,0000.0,0000.31,0000.23,0000.22
2024-02-09 01:14:00,SystemResetWarning,0819.5,5.00,000.00,020.7,019.9,000.0,029.0,022.3,11.6,0000.0,0000.32,0000.24,0000.22
2024-02-09 01:15:00,SystemResetWarning,0819.4,5.00,000.00,020.7,019.9,000.0,029.0,022.3,11.4,0000.0,0000.29,0000.22,0000.21
2024-02-09 01:16:00,SystemResetWarning,0819.5,5.00,000.00,020.7,019.8,000.0,029.0,022.2,11.3,0000.0,0000.27,0000.22,0000.21
2024-02-09 01:17:00,SystemResetWarning,0819.6,5.00,000.00,020.6,019.8,000.0,029.0,022.2,11.4,0000.0,0000.27,0000.22,0000.21
2024-02-09 01:18:00,SystemResetWarning,0819.5,5.00,000.00,020.6,019.8,000.0,029.0,022.3,11.1,0000.0,0000.32,0000.22,0000.21
2024-02-09 01:19:00,SystemResetWarning,0819.6,5.00,000.00,020.6,019.8,000.0,028.9,022.3,11.2,0000.0,0000.52,0000.23,0000.21
2024-02-09 01:20:00,SystemResetWarning,0819.7,5.00,000.00,020.6,019.8,000.0,028.9,022.3,11.2,0000.0,0000.55,0000.25,0000.22
2024-02-09 01:21:00,SystemResetWarning,0819.6,5.00,000.00,020.6,019.7,000.0,028.9,022.3,11.3,0000.0,0000.61,0000.27,0000.23
2024-02-09 01:22:00,SystemResetWarning,0819.6,5.01,000.00,020.6,019.7,000.0,028.9,022.2,11.6,0000.0,0000.63,0000.28,0000.23
2024-02-09 01:23:00,SystemResetWarning,0819.7,5.00,000.00,020.5,019.7,000.0,028.9,022.2,11.6,0000.0,0000.63,0000.28,0000.23
2024-02-09 01:24:00,SystemResetWarning,0819.6,5.01,000.00,020.5,019.7,000.0,028.9,022.2,11.8,0000.0,0000.62,0000.28,0000.24
2024-02-09 01:25:00,SystemResetWarning,0819.6,4.99,000.00,020.5,019.7,000.0,028.9,022.2,11.8,0000.0,0000.63,0000.28,0000.24
2024-02-09 01:26:00,SystemResetWarning,0819.5,5.00,000.00,020.5,019.7,000.0,028.9,022.1,11.9,0000.0,0000.68,0000.30,0000.24
2024-02-09 01:27:00,SystemResetWarning,0819.5,5.01,000.00,020.5,019.7,000.0,028.8,022.1,11.8,0000.0,0000.68,0000.30,0000.24
2024-02-09 01:28:00,SystemResetWarning,0819.5,5.00,000.00,020.5,019.6,000.0,028.8,022.1,11.7,0000.0,0000.71,0000.31,0000.24
2024-02-09 01:29:00,SystemResetWarning,0819.5,5.00,000.00,020.5,019.6,000.0,028.8,022.1,11.4,0000.0,0000.71,0000.32,0000.24
2024-02-09 01:30:00,SystemResetWarning,0819.8,5.00,000.00,020.4,019.6,000.0,028.8,022.1,11.5,0000.0,0000.57,0000.33,0000.25
2024-02-09 01:31:00,SystemResetWarning,0819.7,5.00,000.00,020.4,019.6,000.0,028.8,022.0,12.0,0000.0,0000.58,0000.33,0000.24
2024-02-09 01:32:00,SystemResetWarning,0819.5,5.00,000.00,020.4,019.5,000.0,028.8,022.0,11.4,0000.0,0000.55,0000.32,0000.23
2024-02-09 01:33:00,SystemResetWarning,0819.6,5.01,000.00,020.4,019.5,000.0,028.8,022.0,11.6,0000.0,0000.52,0000.31,0000.23
2024-02-09 01:34:00,SystemResetWarning,0819.7,5.00,000.00,020.4,019.5,000.0,028.7,022.0,11.9,0000.0,0000.52,0000.31,0000.23
2024-02-09 01:35:00,SystemResetWarning,0819.8,5.00,000.00,020.3,019.5,000.0,028.7,022.0,11.9,0000.0,0000.52,0000.30,0000.23
2024-02-09 01:36:00,SystemResetWarning,0819.8,5.00,000.00,020.3,019.5,000.0,028.7,022.0,11.7,0000.0,0000.51,0000.30,0000.22
2024-02-09 01:37:00,SystemResetWarning,0819.9,5.00,000.00,020.3,019.5,000.0,028.7,021.9,11.6,0000.0,0000.46,0000.29,0000.22
2024-02-09 01:38:00,SystemResetWarning,0820.0,4.99,000.00,020.3,019.5,000.0,028.7,021.9,11.7,0000.0,0000.47,0000.29,0000.23
2024-02-09 01:39:00,SystemResetWarning,0819.9,4.99,000.00,020.3,019.5,000.0,028.7,021.9,11.6,0000.0,0000.56,0000.31,0000.24
2024-02-09 01:40:00,SystemResetWarning,0820.0,4.99,000.00,020.3,019.5,000.0,028.6,021.9,11.8,0000.0,0000.59,0000.31,0000.23
2024-02-09 01:41:00,SystemResetWarning,0819.7,5.00,000.00,020.3,019.5,000.0,028.6,021.9,12.1,0000.0,0000.54,0000.29,0000.23
2024-02-09 01:42:00,SystemResetWarning,0819.9,5.01,000.00,020.3,019.5,000.0,028.6,021.9,11.6,0000.0,0000.51,0000.29,0000.23
2024-02-09 01:43:00,SystemResetWarning,0820.0,5.01,000.00,020.2,019.5,000.0,028.6,021.9,11.6,0000.0,0000.49,0000.28,0000.24
2024-02-09 01:44:00,SystemResetWarning,0820.1,5.00,000.00,020.2,019.5,000.0,028.6,021.8,12.0,0000.0,0000.50,0000.29,0000.24
2024-02-09 01:45:00,SystemResetWarning,0819.7,5.00,000.00,020.2,019.5,000.0,028.6,021.8,12.0,0000.0,0000.50,0000.29,0000.24
2024-02-09 01:46:00,SystemResetWarning,0819.9,4.99,000.00,020.2,019.4,000.0,028.5,021.8,12.0,0000.0,0000.50,0000.29,0000.24
2024-02-09 01:47:00,SystemResetWarning,0819.8,5.00,000.00,020.2,019.4,000.0,028.5,021.8,11.6,0000.0,0000.53,0000.30,0000.24
2024-02-09 01:48:00,SystemResetWarning,0819.8,4.99,000.00,020.2,019.4,000.0,028.5,021.8,11.6,0000.0,0000.53,0000.30,0000.24
2024-02-09 01:49:00,SystemResetWarning,0819.8,5.01,000.00,020.2,019.4,000.0,028.5,021.7,11.8,0000.0,0000.58,0000.32,0000.24
2024-02-09 01:50:00,SystemResetWarning,0819.7,5.01,000.00,020.1,019.4,000.0,028.5,021.7,11.9,0000.0,0000.54,0000.31,0000.23
2024-02-09 01:51:00,SystemResetWarning,0819.9,4.99,000.00,020.1,019.4,000.0,028.5,021.7,12.1,0000.0,0000.42,0000.28,0000.23
2024-02-09 01:52:00,SystemResetWarning,0819.7,5.00,000.00,020.1,019.4,000.0,028.5,021.7,11.7,0000.0,0000.43,0000.29,0000.23
2024-02-09 01:53:00,SystemResetWarning,0819.9,4.99,000.00,020.1,019.4,000.0,028.4,021.7,11.9,0000.0,0000.43,0000.29,0000.22
2024-02-09 01:54:00,SystemResetWarning,0819.7,5.00,000.00,020.1,019.4,000.0,028.4,021.7,11.9,0000.0,0000.44,0000.29,0000.23
2024-02-09 01:55:00,SystemResetWarning,0819.8,5.00,000.00,020.1,019.3,000.0,028.4,021.7,11.7,0000.0,0000.48,0000.30,0000.23
2024-02-09 01:56:00,SystemResetWarning,0819.8,5.01,000.00,020.1,019.3,000.0,028.4,021.6,11.5,0000.0,0000.51,0000.31,0000.23
2024-02-09 01:57:00,SystemResetWarning,0820.2,5.00,000.00,020.1,019.3,000.0,028.4,021.6,11.4,0000.0,0000.52,0000.32,0000.23
2024-02-09 01:58:00,SystemResetWarning,0819.9,5.00,000.00,020.1,019.3,000.0,028.4,021.6,11.4,0000.0,0000.53,0000.32,0000.23
2024-02-09 01:59:00,SystemResetWarning,0820.0,5.00,000.00,020.0,019.3,000.0,028.4,021.6,11.3,0000.0,0000.49,0000.31,0000.22
